Regional Weather Roundup
Issued by NWS

Home | Current Version | Previous Version | Text Only | Print | Product List | Glossary On
Versions: 1 2 3 4 5 6 7 8 9 10 11 12 13 14 15 16 17 18 19 20 21 22 23 24 25 26 27 28 29 30 31 32 33 34 35 36 37 38 39 40 41 42 43 44 45 46 47 48 49 50
000
ASUS43 KOAX 291610
RWRNE

WEATHER ROUNDUP FOR NEBRASKA
NATIONAL WEATHER SERVICE OMAHA NE
1000 AM CST MON DEC 29 2014

NOTES: SATELLITE DATA IS BEING USED TO AUGMENT CLOUD COVER ABOVE
       12000 FEET.
       "FAIR" INDICATES FEW OR NO CLOUDS BELOW 12,000 FEET WITH NO
       SIGNIFICANT WEATHER AND/OR OBSTRUCTIONS TO VISIBILITY.

  * THESE STATIONS DO NOT REPORT WEATHER SUCH AS RAIN...SNOW OR FOG.

NEZ001>004-019>022-054>056-291700-
NEBRASKA PANHANDLE

CITY           SKY/WX    TMP DP  RH WIND       PRES   REMARKS
SCOTTSBLUFF    LGT SNOW  10   5  80 NE22      30.29R WCI -10
ALLIANCE       LGT SNOW   6   2  83 N17       30.31R FOG     WCI -13
CHADRON        LGT SNOW   5   0  79 NE15      30.44R WCI -13
KIMBALL        FLURRIES   8   5  86 N12       30.19R WCI  -7
SIDNEY         LGT SNOW  12   9  87 NE16      30.23R FOG     WCI  -5
$$

NEZ057>060-069>072-079>082-291700-
SOUTHWEST NEBRASKA

CITY           SKY/WX    TMP DP  RH WIND       PRES   REMARKS
NORTH PLATTE   LGT SNOW  15  10  80 NE21G28   30.32R WCI  -2
IMPERIAL       LGT SNOW  16  11  80 NE17      30.26R WCI   0
LEXINGTON      LGT SNOW  19  16  86 NE16      30.32R WCI   5
MCCOOK         LGT SNOW  20  16  84 NE15      30.28R FOG     WCI   6
OGALLALA       LGT SNOW  16  11  83 NE18G24   30.29R WCI  -1
$$

NEZ005>010-023>029-035>040-094-291700-
NORTH CENTRAL NEBRASKA

CITY           SKY/WX    TMP DP  RH WIND       PRES   REMARKS
VALENTINE      LGT SNOW   4  -1  80 N15       30.48R WCI -14
AINSWORTH      LGT SNOW   6   1  83 N16       30.44R WCI -13
BROKEN BOW     LGT SNOW  14   9  80 N15G25    30.35R VSB 1   WCI  -1
O`NEILL        LGT SNOW  10   7  89 N15G22    30.47R WCI  -7
ORD            SNOW      13   8  81 N16G23    30.41R VSB 1/2 WCI  -3
THEDFORD       LGT SNOW   9   4  83 N16       30.39R WCI  -9
$$

NEZ041-046>049-061>064-073>077-083>087-291700-
SOUTH CENTRAL NEBRASKA

CITY           SKY/WX    TMP DP  RH WIND       PRES   REMARKS
GRAND ISLAND   LGT SNOW  19  15  84 NE17G24   30.37R VSB 3/4 WCI   4
AURORA         LGT SNOW  20  18  91 NE17      30.36R WCI   5
HASTINGS       LGT SNOW  20  16  84 NE15G24   30.32R FOG     WCI   6
HEBRON         CLOUDY    25  21  85 NE12      30.34R FOG     WCI  14
HOLDREGE       LGT SNOW  20  16  87 NE15      30.30R WCI   6
KEARNEY *      CLOUDY   N/A N/A N/A N18G26    30.33R
YORK           LGT SNOW  19  18  93 NE18      30.36R VSB 3/4 WCI   4
$$

NEZ011>018-030>034-042>045-291700-
NORTHEAST NEBRASKA

CITY           SKY/WX    TMP DP  RH WIND       PRES   REMARKS
NORFOLK        LGT SNOW  15  10  80 N14       30.45R WCI   0
ALBION         CLOUDY    15  10  79 N15       30.42R HAZE    WCI   0
BLAIR          LGT SNOW  22  19  88 N15G21    30.38R WCI   9
COLUMBUS *     CLOUDY    19  10  68 NE16      30.42R WCI   5
FREMONT        LGT SNOW  22  19  88 N10       30.43R WCI  11
TEKAMAH        LGT SNOW  21  17  84 N17       30.45R VSB 1   WCI   7
WAYNE          CLOUDY    13   9  83 N18       30.48R WCI  -4
$$

NEZ050>053-065>068-078-088>093-291700-
SOUTHEAST NEBRASKA

CITY           SKY/WX    TMP DP  RH WIND       PRES   REMARKS
LINCOLN        LGT SNOW  24  20  84 NE17      30.39R VSB 1   WCI  11
OMAHA EPPLEY   LGT SNOW  23  19  85 NE10      30.43R FOG     WCI  12
BEATRICE       CLOUDY    26  22  86 NE12      30.33R FOG     WCI  15
FALLS CITY     MOSUNNY   30  25  81 NE10      30.34R WCI  21
NEBRASKA CITY  LGT SNOW  26  24  95 NE14      30.36R WCI  14
PLATTSMOUTH    LGT SNOW  24  20  86 N13       30.37R WCI  12
$$

NEZ044-045-051>053-067-291700-
OMAHA AREA

CITY           SKY/WX    TMP DP  RH WIND       PRES   REMARKS
OMAHA EPPLEY   LGT SNOW  23  19  85 NE10      30.43R FOG     WCI  12
BLAIR          LGT SNOW  22  19  88 N15G21    30.38R WCI   9
FREMONT        LGT SNOW  22  19  88 N10       30.43R WCI  11
MILLARD        LGT SNOW  24  20  84 NE9       30.41R WCI  15
OFFUTT AFB     LGT SNOW  24  20  86 N12       30.40R FOG     WCI  12
PLATTSMOUTH    LGT SNOW  24  20  86 N13       30.37R WCI  12
WAHOO          LGT SNOW  23  18  83 NE17      30.40R WCI   9
$$


USA.gov is the U.S. government's official web portal to all federal, state and local government web resources and services.